Flag Weather past 2 weeks in Furnace Creek (Death Valley), California, U.S.A.

Now
63 °F

Sunny.


Feels Like: 63 °F
Forecast: 52 / 81 °F
Wind: 8 mph from Southeast

Location: Desert Rock Airport

Current Time: Nov 27, 2014 at 3:48:50 PM

Latest Report: Nov 27, 2014 at 2:52 PM


Visibility: 10 mi

Pressure: 30.13 "Hg

Humidity: 15%

Dew point: 14 °F

Location of Furnace Creek (Death Valley)Location

Historic Weather in Furnace Creek (Death Valley) — Graph

°F

Furnace Creek (Death Valley) temperature yesterday

Maximum temperature yesterday: 72 °F (at 12:52 PM)
Minimum temperature yesterday: 35 °F (at 6:52 AM)
Average temperature yesterday: 52 °F

Past Weeks' High & Low Weather Summary

 TemperatureHumidityPressure
High72 °F (Nov 26, 12:52 PM)76% (Nov 15, 5:52 AM)30.47 "Hg (Nov 15, 5:52 AM)
Low29 °F (Nov 25, 4:52 AM)7% (Nov 16, 2:52 PM)29.79 "Hg (Nov 12, 1:52 PM)
Average50 °F28%30.10 "Hg
* Reported Nov 12 1:52 PM — Nov 27 1:52 PM, Furnace Creek (Death Valley), Weather by CustomWeather, © 2014

Note: Actual official high and low records may vary slightly from our data, if they occured in-between our weather recording intervals... More about our weather records

Advertising

Furnace Creek (Death Valley) weather history for previous 24 hours

 ConditionsComfort  
Time TempWeatherWind HumidityBarometerVisibility
1:52 PM
Nov 27
64 °FSunny.8 mph13%30.14 "Hg10 mi
12:52 PM64 °FSunny.6 mph14%30.16 "Hg10 mi
11:52 AM63 °FSunny.10 mph15%30.19 "Hg10 mi
10:52 AM62 °FSunny.3 mph17%30.23 "Hg10 mi
9:52 AM61 °FSunny.6 mph17%30.24 "Hg10 mi
8:52 AM55 °FSunny.3 mph21%30.27 "Hg10 mi
7:52 AM49 °FSunny.6 mph27%30.27 "Hg10 mi
6:52 AM42 °FSunny.7 mph33%30.27 "Hg10 mi
4:52 AM43 °FClear.5 mph31%30.23 "Hg10 mi
3:52 AM43 °FClear.5 mph31%30.23 "Hg10 mi
2:52 AM43 °FClear.6 mph29%30.24 "Hg10 mi
1:52 AM40 °FClear.8 mph32%30.26 "Hg10 mi
12:52 AM43 °FClear.5 mph29%30.26 "Hg10 mi
11:52 PM
Nov 26
46 °FClear.3 mph27%30.26 "Hg10 mi
10:52 PM43 °FClear.6 mph29%30.27 "Hg10 mi
9:52 PM47 °FClear.3 mph26%30.28 "Hg10 mi
8:52 PM48 °FClear.6 mph24%30.30 "Hg10 mi
7:52 PM48 °FClear.3 mph23%30.30 "Hg10 mi
6:52 PM51 °FClear.No wind20%30.31 "Hg10 mi
5:52 PM52 °FClear.5 mph19%30.29 "Hg10 mi
4:52 PM63 °FClear.No wind13%30.26 "Hg10 mi
3:52 PM67 °FSunny.8 mph12%30.25 "Hg10 mi
Weather by CustomWeather, © 2014

See weather overviewHow to use our weather pages